This is the latest recevied weather packets stored in our database for station/object EFIV. If no packets are shown the sender has not sent any weather packets the latest 10 day(s).
| Time | Temp. | Humidity | Pressure | Rain* | Wind** | Luminosity | Snow |
|---|---|---|---|---|---|---|---|
| 1787610238 | 10° C | 91% | 1015.7 hPa | - | - | - | - |
| 1787609037 | 10° C | 89% | 1015.7 hPa | - | - | - | - |
| 1787607839 | 9.44° C | 92% | 1015.6 hPa | - | - | - | - |
| 1787606636 | 10.56° C | 83% | 1015.4 hPa | - | - | - | - |
| 1787605433 | 10.56° C | 89% | 1015.8 hPa | - | - | - | - |
| 1787604236 | 10.56° C | 89% | 1015.8 hPa | - | - | - | - |
| 1787603038 | 10.56° C | 89% | 1015.7 hPa | - | - | - | - |
| 1787601836 | 10.56° C | 94% | 1015.6 hPa | - | - | - | - |
| 1787600634 | 10.56° C | 92% | 1015.4 hPa | - | - | - | - |
| 1787599435 | 11.67° C | 77% | 1015.4 hPa | - | - | - | - |
| 1787598234 | 11.67° C | 88% | 1015.5 hPa | - | - | - | - |
| 1787597034 | 11.67° C | 78% | 1015.6 hPa | - | - | - | - |
| 1787595838 | 11.67° C | 83% | 1015.5 hPa | - | - | - | - |
| 1787594637 | 12.78° C | 77% | 1015.6 hPa | - | - | - | - |
| 1787593435 | 12.78° C | 72% | 1015.8 hPa | - | - | - | - |
| 1787592025 | 12.78° C | 73% | 1015.9 hPa | - | - | - | - |
| 1787591033 | 12.78° C | 74% | 1015.9 hPa | - | - | - | - |
| 1787589836 | 13.33° C | 66% | 1015.8 hPa | - | - | - | - |
| 1787588635 | 13.33° C | 61% | 1015.8 hPa | - | - | - | - |
| 1787587435 | 13.33° C | 62% | 1015.7 hPa | - | - | - | - |
| 1787586234 | 13.89° C | 60% | 1015.6 hPa | - | - | - | - |
| 1787585035 | 13.89° C | 58% | 1015.5 hPa | - | - | - | - |
| 1787583835 | 13.89° C | 59% | 1015.4 hPa | - | - | - | - |
| 1787582635 | 13.89° C | 60% | 1015.4 hPa | - | - | - | - |
| 1787580236 | 14.44° C | 57% | 1015.3 hPa | - | - | - | - |
* Rain since midnight (hover to see other rain measurements)
** Current wind speed in m/s (hover to see current wind gust speed)